sat.trackr.live / text

‹ back to catalog

STARLINK-6364

NORAD 57378 · 2023-099BC

PAYLOAD ACTIVE UNKNOWN

§ Identity

Operator
Country
US
Launch date
2023-07-16
Launch site
AFETR
Launch vehicle
Mass (kg)
RCS (m²)

Purposes: comms

External: N2YO · Heavens-Above · Gunter

§ Orbital elements

Epoch: 2026-09-20T12:27:47.470752Z

Period
94.27 min
Inclination
43.0017°
Eccentricity
0.0001178
Mean motion
15.27576081 rev/d
Perigee alt
482.3 km
Apogee alt
483.9 km
Semi-major
6,861.2 km
B*
1.8249e-5
RAAN
192.1625°
Arg perigee
273.6993°
Mean anomaly
86.3724°
Rev number
17,707

§ Raw data

STARLINK-63641 57378U 23099BC  26263.51929943  .00000240  00000+0  18249-4 0  99972 57378  43.0017 192.1625 0001178 273.6993  86.3724 15.27576081177073

JSON: /api/v1/satellites/57378 · /tle

For live sub-satellite position, see the globe view (requires WebGL).

§ Visibility from observer

Set your observer location to see the next 7 days of passes ≥ 10°. The values pass through the URL so the page stays shareable.

No JS? Fill the form by hand. The geolocation button needs JavaScript.